Погода Соболево

Погода Соболево : погода сейчас, прогноз погоды и архив. Всё, что Вы хотите узнать о погоде Соболево!

Поиск расширенной информации на нашем сайте:

Другие новости

Новости СМИ2

Главная страница сайта

Новости сайта

02.10.2013

Напоминаем, что на нашем новом сайте вы можете получить высокодетализированные прогнозы погоды по пунктам России, СНГ и мира (включающие важные для авиации метеовеличины, такие как направление и скорость ветра, видимость, явления погоды, количество и форма облачности, нижняя и верхняя граница облачности), а также ознакомиться с разнообразными материалами по авиационной метеорологии и подборкой полезных ссылок на эту тему.

Сайт Метеоцентр.Азия посвящён разработке технологий оптимизации авиаметеорологического обслуживания, включая проектирование и перспективное создание нескольких автоматизированных авиаметеорологических систем:
- система выпуска высокодетальных прогностических карт явлений погоды для нижнего воздушного пространства по России и ближнему зарубежью;
- система верификации прогнозов TAF (выпускаемых синоптиками официальных АМСГ РФ и ближнего зарубежья) и AUTOTAF (выпускаемых сайтом Метеоцентр.Азия) - выявление ошибок, онлайн-сопоставление с фактической погодой METAR, автоматическое внесение коррективов в прогнозы при резком отклонении фактической погоды от прогноза, подсчёт оправдываемости прогнозов по элементам и в целом;
- система обработки, анализа и отображения авиаметеорологической информации для применения провайдерами метеорологической информации.

Рекомендуем: Описание бетономешалка сбр 132а цена у нас.

Погода Соболево - сегодня

Время (UTC), дата Ветер
(°,м/с) 
Видим.   Явления Облачность Т
(°С)
Тd
(°С)
f(%) Тe
(°С)
Pmin
(гПа)
dP
(гПа)
Po
(мм)
O2
(г/м3)
Тmin Tmax R s Состояние
почвы
12 25.05.17 360 (С) 0500 м  туман  ?/?  
+0.4 -0.3 95 +1  1018.9  0.5  762  307           
15 25.05.17 360 (С) н/о    н/о 
-1 -1.4 97 1018.7  -0.3  762  308           
18 25.05.17 060 (СВ) 20000 м  {туман}  6/0 верхняя 
[Ci fib]
-2.1 -2.5 97 -2  1016.9  -1.8  760  309           
00 26.05.17 350 (С) 20000 м    3/0 верхняя 
[Ci fib]
+14.7 -3.4 28 +16  1013.5  -1.9  758  290           
03 26.05.17 290 (З) 20000 м    3/0 верхняя 
[Ci fib]
+14.7 -3.5 28 +15  1011.2  -2.2  756  290           
06 26.05.17 270 (З) 20000 м    3/0 верхняя 
[Ci fib]
+14.5 -2.6 31 +15  1010  -1.2  755  289           
12 26.05.17 260 (З) 20000 м    10/0 средняя 
[Ac und]
+6.5 +3.6 82 +6  1008.9  0.1  754  296           
15 26.05.17 100 (В) 10 км  слаб. ливневой дождь  10/10 300 м кучево-дожд. 
[Cb cap]
+5.2 +4.1 93 +5  1007.9  -1  754  297           
18 26.05.17 280 (З) 10 км  {ливн. осадки}  10/10 300 м 
[St]
+4.7 +3.8 94 +6  1007.7  -0.2  753  298           
21 26.05.17 060 (СВ) 10 км  {ливн. осадки}  10/10 300 м 
[St]
+5.2 +4.3 94 +6  1007.9  0.3  754  297  +4.5      влажная 
03 27.05.17 250 (З) 20000 м    6/0 средняя 
[Ac As]
+9.7 +1.7 57 +10  1007.5  0.1  753  293           
06 27.05.17 230 (ЮЗ) 10 км    10/10 600 м 
[Sc]
+6.1 +2.6 78 +5  1008.1  0.5  754  297           
12 27.05.17 200 (Ю) 10 км    10/10 300 м 
[St]
+3.4 +2.6 94 +2  1009.3  1.1  755  300           
15 27.05.17 170 (Ю) 10 км    10/10 300 м 
[St]
+3.1 +2.3 94 +3  1009.9  0.6  755  300           
18 27.05.17 160 (Ю) 10 км    10/10 300 м 
[St]
+2.7 +1.8 94 +1  1010.6  0.7  756  301           
00 28.05.17 200 (Ю) 10 км    10/10 300 м 
[St]
+6.2 +2.3 76 +5  1010.2  -0.9  755  297           
03 28.05.17 200 (Ю) 10 км  слаб. ливневой дождь  10/10 300 м кучево-дожд. 
[Cb cap]
+5.9 +4 88 +4  1009.9  -0.3  755  297           
06 28.05.17 170 (Ю) 10 км  в посл. час ливневой дождь  10/10 300 м 
[St]
+6.3 +4.6 89 +6  1009.1  -0.8  755  296           
09 28.05.17 190 (Ю) 10 км  слаб. ливневой дождь  10/10 300 м кучево-дожд. 
[Cb cap]
+5 +3.9 93 +3  1007.6  -1.5  753  297    +7.2  0.3     
12 28.05.17 180 (Ю) 10 км  слаб. ливневой дождь  10/10 300 м кучево-дожд. 
[Cb cap]
+4.4 +3.5 94 +3  1007.5  0.1  753  298           
15 28.05.17 170 (Ю) 10 км  слаб. ливневой дождь  10/10 300 м кучево-дожд. 
[Cb cap]
+3.9 +3 94 +3  1006.7  -0.8  753  299           
18 28.05.17 190 (Ю) 10 км  {ливн. осадки}  10/10 300 м 
[St]
+4.3 +3.3 93 +5  1006.1  -0.6  752  298           
03 29.05.17 190 (Ю) 10 км    10/10 600 м 
[Sc]
+10.7 +1.9 54 +10  1004.2  -0.7  751  291           
06 29.05.17 250 (З) 10 км    10/10 600 м 
[Sc]
+10.3 -0.1 48 +10  1003.9  -0.3  751  291           
12 29.05.17 060 (СВ) 10 км    10/10 600 м 
[Sc]
+3.7 +2 89 +5  1005.6  0.8  752  299           
Время (UTC), дата Ветер
(°,м/с) 
Видим.   Явления Облачность Т
(°С)
Тd
(°С)
f(%) Тe
(°С)
Pmin
(гПа)
dP
(гПа)
Po
(мм)
O2
(г/м3)
Тmin Tmax R s Состояние
почвы

Для получения пояснительной информации подведите курсор к названию столбца.

ПОГОДА Соболево - архив

Всё, что Вы хотите узнать о погоде Соболево - удобно и подробно!

Выберите нужную дату (начиная с 1 января 2015* года) и нажмите кнопку "Найти".
Будут отображены архивные сводки погоды по пункту Соболево, начиная с указанной даты.


Отображать данные в формате CSV (для использования в таблицах Excel)


Внимание! Наш архив погоды предназначен исключительно для личного некоммерческого использования в познавательных целях. Если Вам необходимы официальные справки о состоянии погоды (для производственных, юридических, коммерческих и т.п. целей), обращайтесь в органы Росгидромета.

*Примечание: данная дата относится к архиву по метеостанциям СССР (Россия, СНГ, Балтия).
Архив по метеостанциям Зарубежной Европы и Азии (кроме Китая) хранится 10 дней, по другим регионам земного шара (Китай, Африка, Америка, Австралия, Океания) - 1 день.

Соболево - район местоположения метеостанции


Название, широта, долгота, высота метеостанции:
Соболево 54.30°ш. 155.93°д. 14 м над ур. моря [Российская Федерация]

Дополнительная информация

В oтличие oт бoльшинства пoгoдных сайтoв мы публикуем пoдрoбную метеoинфoрмацию в детальнoм прoфессиoнальнoм фoрмате.

Характеристики температуры и влажнoсти вoздуха измеряются на высoте 2 м в тени вдали oт зданий и деревьев.
Скoрoсть ветра измеряется на высoте 10 м (на урoвне рoста челoвека скoрoсть ветра ниже в 1.5-2 раза). Если метеoстанция нахoдится в гoрoде или в лесу, тo скoрoсть ветра занижена на 2-4 м/с пo сравнению с oткрытым местoм. Скoрoсть ветра над акватoриями крупных рек и oзёр, а также на вершинах хoлмoв на 2-5 м/с выше, чем в oбычных услoвиях.
Атмoсфернoе давление в разных тoчках местнoсти мoжет значительнo oтличаться oт давления на метеoстанции, в зависимoсти oт услoвий рельефа (при пoдъёме на 10 м давление пoнижается примернo на 1 мм рт.ст.).